Lapse_Rate
1.3 2.1 2.6 3.6 3.0 2.9 2.8 2.9 3.2 3.3 4.5 4.2 3.9 3.7 4.1 4.7 4.9 4.9 5.1 5.1 5.3 5.8 6.1 6.5 7.8 9.3 9.4
1.2 2.3 2.6 3.0 3.1 3.2 3.4 2.5 2.3 3.0 3.4 3.4 3.9 4.2 4.3 4.5 4.5 4.7 4.5 4.4 4.7 5.3 6.1 7.5 9.3 9.3 9.4
0.7 0.9 1.2 2.2 2.5 2.2 1.9 2.1 2.0 2.0 2.7 3.5 3.7 4.1 4.0 3.8 4.2 3.9 3.9 4.1 4.7 6.1 7.4 9.2 9.3 9.3 9.4
1.6 1.2 1.8 1.5 2.5 3.4 2.7 2.0 3.0 2.4 3.0 3.5 3.5 3.4 3.1 3.5 3.5 2.9 3.4 4.8 5.7 8.1 9.2 9.2 9.2 9.2 9.3
1.3 1.3 1.6 1.8 2.9 2.5 2.8 2.8 2.8 2.1 3.0 3.7 3.3 3.2 2.7 2.4 2.2 3.0 4.2 5.3 6.8 9.2 9.2 9.2 9.2 9.2 9.3
1.7 3.0 1.9 2.5 2.5 2.4 2.8 2.8 4.2 2.0 2.7 3.5 2.9 3.4 2.9 3.0 3.0 3.5 5.2 6.8 7.2 7.2 7.6 8.5 9.1 9.2 9.2
3.0 2.9 2.6 2.9 2.6 2.5 2.8 3.4 4.0 4.1 3.3 3.3 3.1 3.5 3.4 3.2 2.9 4.3 6.1 6.9 6.8 6.8 7.0 7.3 8.3 9.0 9.1
3.5 3.5 2.9 2.3 3.1 3.4 3.6 3.4 3.5 3.4 3.6 3.8 3.9 4.0 3.2 3.1 3.2 4.8 6.5 6.6 6.3 6.7 6.7 7.2 7.5 8.4 7.9
3.2 2.7 2.3 2.3 2.3 2.9 3.3 3.5 3.9 4.2 3.3 4.2 5.0 5.2 4.2 3.7 4.1 4.9 5.7 5.8 6.1 6.3 6.7 6.7 6.6 7.3 6.8
3.0 2.2 2.2 2.6 2.1 2.6 3.3 3.6 3.5 4.2 4.9 4.9 4.4 5.5 6.7 5.6 5.1 5.2 5.1 5.4 5.7 5.8 5.9 6.1 6.3 6.7 7.1
2.7 2.8 2.4 2.2 2.1 2.1 2.4 3.5 3.7 4.3 6.0 5.9 5.2 5.7 5.7 6.4 5.9 6.2 6.3 5.9 5.7 5.4 5.5 5.7 5.7 6.4 6.7
3.4 3.1 2.8 2.6 2.3 2.3 2.3 2.7 3.0 3.8 4.4 4.8 4.6 5.4 5.4 5.4 6.6 6.5 6.1 5.9 6.3 6.5 6.4 6.1 5.5 5.4 5.7
3.4 2.9 2.9 2.4 2.2 2.3 2.3 2.4 2.5 3.5 4.5 4.4 5.2 5.6 5.2 4.6 5.0 4.8 5.6 5.5 6.0 6.8 6.0 5.4 5.7 5.8 6.2
3.4 3.0 2.5 2.7 3.0 2.6 2.8 2.3 2.3 3.6 4.5 5.0 5.4 5.5 4.7 4.9 5.1 4.2 5.4 5.7 5.8 5.7 5.8 5.7 5.6 5.9 5.9
3.1 3.1 3.1 3.3 3.3 2.9 2.3 1.6 2.1 3.2 4.0 4.7 4.8 4.3 4.2 4.1 3.5 4.8 4.8 5.5 6.4 6.6 6.4 5.4 4.7 5.1 5.7
3.2 3.2 3.0 3.0 3.2 2.5 2.0 2.3 3.2 4.2 4.4 4.5 3.8 2.6 3.3 3.7 4.7 5.6 6.6 6.5 6.4 5.8 5.2 5.3 4.8 5.0 5.8
3.0 2.7 2.7 2.6 2.1 2.4 2.7 2.9 4.2 4.3 4.7 4.6 4.1 3.7 4.7 5.3 5.8 5.6 6.6 5.6 5.8 5.4 5.5 5.8 6.0 5.6 6.0
Wind_Speed
2 8 6 10 7 6 6 5 3 3 3 3 4 6 8 10 11 12 12 14 15 16 18 20 21 20 20
4 4 3 7 7 7 6 5 2 2 3 2 4 8 10 12 13 13 13 14 16 18 20 20 20 20 22
5 2 2 7 3 3 5 5 3 1 1 2 6 9 12 13 12 11 14 17 17 18 17 17 19 22 24
5 4 2 2 2 3 3 1 1 3 2 2 10 10 11 10 11 16 16 17 15 15 15 19 22 22 23
5 3 3 3 5 2 2 0 2 1 2 7 10 9 7 9 12 14 17 14 13 14 20 21 22 22 24
4 6 5 4 4 3 2 1 0 1 3 5 6 7 9 12 15 14 11 10 14 19 19 22 22 25 26
7 5 6 6 6 4 2 1 1 1 3 4 4 6 12 15 14 11 9 12 20 20 22 23 25 24 24
7 7 7 9 5 3 2 1 2 1 0 3 3 6 17 15 10 9 10 19 22 23 24 26 24 22 24
17 16 14 11 8 5 2 1 1 1 1 3 3 6 7 10 8 9 18 22 21 24 24 23 23 24 22
14 14 12 11 10 6 2 2 0 1 2 5 5 4 4 5 9 15 16 17 23 24 22 23 25 21 20
8 6 8 8 6 5 3 1 1 2 1 4 3 6 3 6 7 13 13 18 21 19 18 22 25 25 16
6 5 5 4 4 4 4 3 0 4 9 4 3 4 5 8 7 7 14 16 16 15 18 22 23 24 24
6 5 4 5 4 2 3 3 4 3 3 4 5 5 5 7 8 9 10 7 15 14 19 19 18 20 12
6 5 6 3 3 2 2 3 3 2 4 4 6 7 6 8 8 10 9 7 11 14 16 18 20 20 19
6 5 4 3 2 2 2 2 2 4 5 5 6 10 13 11 7 7 9 9 10 11 12 11 11 17 19
6 5 4 3 2 1 2 1 2 3 4 5 7 6 6 5 12 8 8 10 10 11 11 10 12 14 19
5 5 4 3 2 1 0 1 2 3 4 4 4 3 8 9 7 12 9 10 10 9 9 10 12 14 18
Wind_Direction
117 152 152 159 149 141 142 135 141 37 355 6 11 350 340 327 327 328 324 326 325 322 321 321 317 312 312
144 151 149 161 166 163 167 171 120 266 311 99 9 341 335 325 327 326 323 325 323 324 319 314 312 315 317
138 141 124 166 160 163 187 196 232 319 324 141 350 332 328 325 323 327 328 330 321 313 312 315 319 316 311
119 132 134 147 164 190 192 171 290 0 172 232 327 322 324 328 330 331 325 317 315 316 325 323 315 311 311
138 142 156 157 193 174 130 10 7 341 281 317 322 315 318 329 330 328 323 322 323 324 323 317 315 311 311
156 161 160 156 161 157 148 110 140 214 325 305 293 313 329 333 331 330 324 329 338 325 320 318 316 315 312
147 147 155 171 149 138 146 211 237 123 307 297 332 323 326 326 333 329 325 329 331 327 322 319 319 315 312
113 120 125 134 116 106 134 245 273 105 195 278 340 320 318 321 327 328 322 323 324 323 320 318 317 314 313
116 116 113 115 124 131 137 285 281 152 143 316 322 320 311 306 307 316 314 314 312 315 316 319 320 317 313
110 102 101 99 90 91 127 169 256 254 146 339 329 347 303 295 294 301 305 303 309 312 314 320 321 317 312
121 115 108 99 92 94 101 130 178 259 335 354 294 308 278 303 299 286 291 309 310 312 310 313 315 316 311
129 126 118 108 97 94 90 90 73 283 301 289 259 271 283 297 288 302 307 310 306 308 308 311 312 310 304
138 127 111 113 106 97 56 14 343 329 338 302 253 276 282 274 286 302 318 316 304 307 312 313 310 307 306
131 125 125 120 114 89 27 2 345 357 316 281 284 284 286 281 286 290 301 304 304 309 308 303 304 304 302
133 133 128 123 109 70 72 32 354 322 329 328 318 297 280 273 284 281 292 295 300 307 311 306 304 302 301
136 137 135 131 126 60 54 300 283 307 315 325 336 342 325 289 264 277 293 305 309 307 308 307 304 304 300
140 138 132 116 98 111 236 246 291 312 326 332 326 341 331 316 292 286 310 305 305 304 307 302 300 300 307